Time,TemperatureF,DewpointF,PressureIn,WindDirection,WindDirectionDegrees,WindSpeedMPH,WindSpeedGustMPH,Humidity,HourlyPrecipIn,Conditions,Clouds,dailyrainin,SoftwareType,DateUTC
2013-01-30 00:03:00,37.7,35.0,30.31,SE,135,0.0,0.0,90,0.02,,,0.00,WUHU216HW,2013-01-30 08:03:00,
2013-01-30 00:08:00,37.7,35.0,30.31,SE,135,0.0,0.0,90,0.02,,,0.00,WUHU216HW,2013-01-30 08:08:00,
2013-01-30 00:13:00,37.7,35.0,30.31,ENE,68,0.0,0.0,90,0.02,,,0.00,WUHU216HW,2013-01-30 08:13:00,
2013-01-30 00:18:00,37.7,35.0,30.32,NE,45,0.0,0.0,90,0.04,,,0.02,WUHU216HW,2013-01-30 08:18:00,
2013-01-30 00:23:00,37.9,35.2,30.32,SE,135,0.0,0.0,90,0.02,,,0.02,WUHU216HW,2013-01-30 08:23:00,
2013-01-30 00:28:00,37.7,35.2,30.32,East,90,0.0,0.0,90,0.02,,,0.02,WUHU216HW,2013-01-30 08:28:00,
2013-01-30 00:33:00,37.9,35.2,30.32,NE,45,0.0,0.0,90,0.02,,,0.02,WUHU216HW,2013-01-30 08:33:00,
2013-01-30 00:38:00,37.7,35.0,30.32,South,180,0.0,0.0,90,0.02,,,0.02,WUHU216HW,2013-01-30 08:38:00,
2013-01-30 00:43:00,37.9,35.2,30.32,East,90,0.0,0.0,90,0.04,,,0.04,WUHU216HW,2013-01-30 08:43:00,
2013-01-30 00:48:00,37.7,35.0,30.32,ENE,68,0.0,0.0,90,0.04,,,0.04,WUHU216HW,2013-01-30 08:48:00,
2013-01-30 00:53:00,37.7,35.0,30.31,NE,45,0.0,0.0,90,0.04,,,0.04,WUHU216HW,2013-01-30 08:53:00,
2013-01-30 00:58:00,37.9,35.0,30.31,NE,45,0.0,0.0,90,0.04,,,0.04,WUHU216HW,2013-01-30 08:58:00,
2013-01-30 01:04:00,37.7,35.0,30.31,NE,45,0.0,0.0,90,0.04,,,0.04,WUHU216HW,2013-01-30 09:04:00,
2013-01-30 01:09:00,37.7,35.0,30.32,SSE,158,0.0,0.0,90,0.04,,,0.04,WUHU216HW,2013-01-30 09:09:00,
2013-01-30 01:14:00,37.7,35.0,30.32,SSE,158,0.0,0.0,90,0.02,,,0.04,WUHU216HW,2013-01-30 09:14:00,
2013-01-30 01:19:00,37.7,35.0,30.32,NNE,23,0.0,0.0,90,0.02,,,0.04,WUHU216HW,2013-01-30 09:19:00,
2013-01-30 01:24:00,37.7,35.0,30.32,NE,45,0.0,0.0,90,0.02,,,0.04,WUHU216HW,2013-01-30 09:24:00,
2013-01-30 01:29:00,37.7,35.0,30.32,NE,45,0.0,0.0,90,0.02,,,0.04,WUHU216HW,2013-01-30 09:29:00,
2013-01-30 01:34:00,37.5,34.8,30.32,NE,45,0.0,1.7,90,0.02,,,0.04,WUHU216HW,2013-01-30 09:34:00,
2013-01-30 01:39:00,37.7,35.0,30.32,NNE,23,0.0,1.7,90,0.02,,,0.04,WUHU216HW,2013-01-30 09:39:00,
2013-01-30 01:44:00,37.7,35.0,30.32,NNE,23,0.0,0.0,90,0.00,,,0.04,WUHU216HW,2013-01-30 09:44:00,
2013-01-30 01:49:00,37.7,35.0,30.32,SSE,158,0.0,0.0,90,0.00,,,0.04,WUHU216HW,2013-01-30 09:49:00,
2013-01-30 01:54:00,37.7,35.0,30.32,SSE,158,0.0,0.0,90,0.00,,,0.04,WUHU216HW,2013-01-30 09:54:00,
2013-01-30 01:59:00,37.7,35.0,30.32,SSE,158,0.0,0.0,90,0.00,,,0.04,WUHU216HW,2013-01-30 09:59:00,
2013-01-30 02:04:00,37.7,35.0,30.32,SE,135,0.0,0.0,90,0.00,,,0.04,WUHU216HW,2013-01-30 10:04:00,
2013-01-30 02:09:00,37.5,34.8,30.32,NNE,23,0.0,0.0,90,0.02,,,0.06,WUHU216HW,2013-01-30 10:09:00,
2013-01-30 02:14:00,37.5,34.8,30.32,NE,45,0.0,0.0,90,0.02,,,0.06,WUHU216HW,2013-01-30 10:14:00,
2013-01-30 02:19:00,37.5,34.8,30.32,NE,45,0.0,0.0,90,0.02,,,0.06,WUHU216HW,2013-01-30 10:19:00,
2013-01-30 02:24:00,37.5,34.8,30.32,South,180,0.0,0.0,90,0.02,,,0.06,WUHU216HW,2013-01-30 10:24:00,
2013-01-30 02:29:00,37.5,34.8,30.32,East,90,0.0,0.0,90,0.02,,,0.06,WUHU216HW,2013-01-30 10:29:00,
2013-01-30 02:34:00,37.5,34.8,30.32,ESE,113,0.0,0.0,90,0.02,,,0.06,WUHU216HW,2013-01-30 10:34:00,
2013-01-30 02:39:00,37.5,34.8,30.33,South,180,1.3,1.3,90,0.02,,,0.06,WUHU216HW,2013-01-30 10:39:00,
2013-01-30 02:44:00,37.5,34.8,30.32,SSE,158,0.0,1.3,90,0.02,,,0.06,WUHU216HW,2013-01-30 10:44:00,
2013-01-30 02:49:00,37.5,34.8,30.32,South,180,0.0,1.3,90,0.02,,,0.06,WUHU216HW,2013-01-30 10:49:00,
2013-01-30 02:54:00,37.5,34.8,30.32,SW,225,0.0,0.0,90,0.02,,,0.06,WUHU216HW,2013-01-30 10:54:00,
2013-01-30 02:59:00,37.5,34.8,30.32,WNW,293,0.0,0.0,90,0.02,,,0.06,WUHU216HW,2013-01-30 10:59:00,
2013-01-30 03:04:00,37.5,34.8,30.32,ENE,68,0.0,0.0,90,0.00,,,0.06,WUHU216HW,2013-01-30 11:04:00,
2013-01-30 03:09:00,37.5,34.8,30.32,ENE,68,0.0,0.0,90,0.00,,,0.06,WUHU216HW,2013-01-30 11:09:00,
2013-01-30 03:14:00,37.5,34.8,30.32,ENE,68,0.0,0.0,90,0.00,,,0.06,WUHU216HW,2013-01-30 11:14:00,
2013-01-30 03:19:00,37.5,34.8,30.32,ENE,68,0.0,0.0,90,0.00,,,0.06,WUHU216HW,2013-01-30 11:19:00,
2013-01-30 03:24:00,37.5,34.8,30.32,ESE,113,0.0,0.0,90,0.00,,,0.06,WUHU216HW,2013-01-30 11:24:00,
2013-01-30 03:29:00,37.5,34.8,30.31,SE,135,0.0,0.0,90,0.00,,,0.06,WUHU216HW,2013-01-30 11:29:00,
2013-01-30 03:34:00,37.5,34.8,30.31,SW,225,0.0,0.0,90,0.00,,,0.06,WUHU216HW,2013-01-30 11:34:00,
2013-01-30 03:39:00,37.5,34.8,30.32,NE,45,0.0,0.0,90,0.00,,,0.06,WUHU216HW,2013-01-30 11:39:00,
2013-01-30 03:44:00,37.5,34.8,30.31,SSE,158,0.0,0.0,90,0.00,,,0.06,WUHU216HW,2013-01-30 11:44:00,
2013-01-30 03:49:00,37.4,34.8,30.32,SSE,158,0.0,0.0,90,0.00,,,0.06,WUHU216HW,2013-01-30 11:49:00,
2013-01-30 03:54:00,37.4,34.7,30.32,SSE,158,0.0,0.0,90,0.00,,,0.06,WUHU216HW,2013-01-30 11:54:00,
2013-01-30 03:59:00,37.4,34.7,30.32,East,90,0.0,0.0,90,0.00,,,0.06,WUHU216HW,2013-01-30 11:59:00,
2013-01-30 04:04:00,37.4,34.7,30.33,ENE,68,0.0,0.0,90,0.00,,,0.06,WUHU216HW,2013-01-30 12:04:00,
2013-01-30 04:09:00,37.4,34.7,30.32,ENE,68,0.0,0.0,90,0.00,,,0.06,WUHU216HW,2013-01-30 12:09:00,
2013-01-30 04:14:00,37.4,34.7,30.32,ENE,68,0.0,0.0,90,0.00,,,0.06,WUHU216HW,2013-01-30 12:14:00,
2013-01-30 04:19:00,37.4,34.7,30.32,NE,45,0.0,0.0,90,0.00,,,0.06,WUHU216HW,2013-01-30 12:19:00,
2013-01-30 04:24:00,37.4,34.7,30.32,NNE,23,0.0,0.0,90,0.00,,,0.06,WUHU216HW,2013-01-30 12:24:00,
2013-01-30 04:29:00,37.4,34.7,30.32,ESE,113,0.0,0.0,90,0.00,,,0.06,WUHU216HW,2013-01-30 12:29:00,
2013-01-30 04:34:00,37.4,34.7,30.31,ESE,113,0.0,0.0,90,0.00,,,0.06,WUHU216HW,2013-01-30 12:34:00,
2013-01-30 04:39:00,37.4,34.7,30.31,ESE,113,0.0,0.0,90,0.00,,,0.06,WUHU216HW,2013-01-30 12:39:00,
2013-01-30 04:44:00,37.4,34.7,30.31,East,90,0.0,0.0,90,0.00,,,0.06,WUHU216HW,2013-01-30 12:44:00,
2013-01-30 04:49:00,37.4,34.7,30.31,East,90,0.0,0.0,90,0.00,,,0.06,WUHU216HW,2013-01-30 12:49:00,
2013-01-30 04:54:00,37.4,34.7,30.31,SE,135,0.0,0.0,90,0.00,,,0.06,WUHU216HW,2013-01-30 12:54:00,
2013-01-30 04:59:00,37.4,34.7,30.31,SE,135,0.0,0.0,90,0.00,,,0.06,WUHU216HW,2013-01-30 12:59:00,
2013-01-30 05:05:00,37.4,34.7,30.31,SE,135,0.0,0.0,90,0.00,,,0.06,WUHU216HW,2013-01-30 13:05:00,
2013-01-30 05:10:00,37.2,34.5,30.31,SSW,203,0.0,0.0,90,0.00,,,0.06,WUHU216HW,2013-01-30 13:10:00,
2013-01-30 05:15:00,37.2,34.5,30.31,SSW,203,0.0,0.0,90,0.00,,,0.06,WUHU216HW,2013-01-30 13:15:00,
2013-01-30 05:20:00,37.2,34.5,30.31,SSW,203,0.0,0.0,90,0.00,,,0.06,WUHU216HW,2013-01-30 13:20:00,
2013-01-30 05:25:00,37.2,34.5,30.31,SSW,203,0.0,0.0,90,0.00,,,0.06,WUHU216HW,2013-01-30 13:25:00,
2013-01-30 05:30:00,37.2,34.5,30.31,South,180,0.0,0.0,90,0.00,,,0.06,WUHU216HW,2013-01-30 13:30:00,
2013-01-30 05:35:00,37.4,34.7,30.31,SSE,158,0.0,0.0,90,0.00,,,0.06,WUHU216HW,2013-01-30 13:35:00,
2013-01-30 05:40:00,37.4,34.7,30.31,ENE,68,0.0,0.0,90,0.00,,,0.06,WUHU216HW,2013-01-30 13:40:00,
2013-01-30 05:45:00,37.4,34.7,30.32,East,90,0.0,0.0,90,0.00,,,0.06,WUHU216HW,2013-01-30 13:45:00,
2013-01-30 05:50:00,37.2,34.5,30.32,NE,45,0.0,0.0,90,0.02,,,0.08,WUHU216HW,2013-01-30 13:50:00,
2013-01-30 05:55:00,37.2,34.5,30.32,NE,45,0.0,0.0,90,0.02,,,0.08,WUHU216HW,2013-01-30 13:55:00,
2013-01-30 06:00:00,37.4,34.7,30.32,NE,45,0.0,0.0,90,0.02,,,0.08,WUHU216HW,2013-01-30 14:00:00,
2013-01-30 06:05:00,37.4,34.7,30.31,NE,45,0.0,0.0,90,0.02,,,0.08,WUHU216HW,2013-01-30 14:05:00,
2013-01-30 06:10:00,37.4,34.7,30.31,SSE,158,0.0,0.0,90,0.02,,,0.08,WUHU216HW,2013-01-30 14:10:00,
2013-01-30 06:15:00,37.2,34.5,30.32,SSE,158,0.0,0.0,90,0.02,,,0.08,WUHU216HW,2013-01-30 14:15:00,
2013-01-30 06:20:00,37.4,34.7,30.32,SSE,158,0.0,0.0,90,0.02,,,0.08,WUHU216HW,2013-01-30 14:20:00,
2013-01-30 06:25:00,37.2,34.5,30.32,NNE,23,0.0,0.0,90,0.02,,,0.08,WUHU216HW,2013-01-30 14:25:00,
2013-01-30 06:30:00,37.4,34.7,30.32,ENE,68,0.0,0.0,90,0.02,,,0.08,WUHU216HW,2013-01-30 14:30:00,
2013-01-30 06:35:00,37.4,34.7,30.32,ENE,68,0.0,0.0,90,0.02,,,0.08,WUHU216HW,2013-01-30 14:35:00,
2013-01-30 06:40:00,37.4,34.7,30.32,ENE,68,0.0,0.0,90,0.02,,,0.08,WUHU216HW,2013-01-30 14:40:00,
2013-01-30 06:45:00,37.5,34.8,30.33,ENE,68,0.0,0.0,90,0.02,,,0.08,WUHU216HW,2013-01-30 14:45:00,
2013-01-30 06:50:00,37.4,34.7,30.32,NE,45,0.0,0.0,90,0.00,,,0.08,WUHU216HW,2013-01-30 14:50:00,
2013-01-30 06:55:00,37.5,34.8,30.32,NE,45,0.0,0.0,90,0.00,,,0.08,WUHU216HW,2013-01-30 14:55:00,
2013-01-30 07:00:00,37.5,34.8,30.32,East,90,0.0,0.0,90,0.00,,,0.08,WUHU216HW,2013-01-30 15:00:00,
2013-01-30 07:05:00,37.5,34.8,30.33,East,90,0.0,0.0,90,0.00,,,0.08,WUHU216HW,2013-01-30 15:05:00,
2013-01-30 07:10:00,37.4,34.7,30.33,South,180,0.0,0.0,90,0.00,,,0.08,WUHU216HW,2013-01-30 15:10:00,
2013-01-30 07:15:00,37.5,34.8,30.33,SW,225,0.0,0.0,90,0.00,,,0.08,WUHU216HW,2013-01-30 15:15:00,
2013-01-30 07:20:00,37.5,34.8,30.33,SW,225,0.0,0.0,90,0.00,,,0.08,WUHU216HW,2013-01-30 15:20:00,
2013-01-30 07:25:00,37.5,34.8,30.33,ENE,68,0.0,0.0,90,0.00,,,0.08,WUHU216HW,2013-01-30 15:25:00,
2013-01-30 07:30:00,37.5,34.8,30.32,NE,45,0.0,0.0,90,0.00,,,0.08,WUHU216HW,2013-01-30 15:30:00,
2013-01-30 07:35:00,37.5,34.8,30.32,NE,45,0.0,0.0,90,0.00,,,0.08,WUHU216HW,2013-01-30 15:35:00,
2013-01-30 07:40:00,37.5,34.8,30.32,ENE,68,0.0,0.0,90,0.00,,,0.08,WUHU216HW,2013-01-30 15:40:00,
2013-01-30 07:45:00,37.4,34.7,30.33,ENE,68,0.0,0.0,90,0.00,,,0.08,WUHU216HW,2013-01-30 15:45:00,
2013-01-30 07:50:00,37.5,34.8,30.32,East,90,0.0,0.0,90,0.00,,,0.08,WUHU216HW,2013-01-30 15:50:00,
2013-01-30 07:55:00,37.4,34.7,30.33,NE,45,0.0,0.0,90,0.00,,,0.08,WUHU216HW,2013-01-30 15:55:00,
2013-01-30 08:00:00,37.4,34.7,30.33,NE,45,0.0,0.0,90,0.00,,,0.08,WUHU216HW,2013-01-30 16:00:00,
2013-01-30 08:05:00,37.5,34.8,30.33,NE,45,0.0,0.0,90,0.00,,,0.08,WUHU216HW,2013-01-30 16:05:00,
2013-01-30 08:10:00,37.5,34.8,30.33,SE,135,0.0,0.0,90,0.00,,,0.08,WUHU216HW,2013-01-30 16:10:00,
2013-01-30 08:15:00,37.5,34.8,30.33,SE,135,0.0,0.0,90,0.00,,,0.08,WUHU216HW,2013-01-30 16:15:00,
2013-01-30 08:20:00,37.5,34.8,30.33,ENE,68,0.0,0.0,90,0.00,,,0.08,WUHU216HW,2013-01-30 16:20:00,
2013-01-30 08:25:00,37.5,34.8,30.33,ENE,68,0.0,0.0,90,0.00,,,0.08,WUHU216HW,2013-01-30 16:25:00,
2013-01-30 08:30:00,37.7,35.0,30.33,ENE,68,0.0,0.0,90,0.00,,,0.08,WUHU216HW,2013-01-30 16:30:00,
2013-01-30 08:35:00,37.7,35.0,30.33,East,90,0.0,0.0,90,0.00,,,0.08,WUHU216HW,2013-01-30 16:35:00,
2013-01-30 08:40:00,37.7,35.0,30.34,East,90,0.0,0.0,90,0.00,,,0.08,WUHU216HW,2013-01-30 16:40:00,
2013-01-30 08:45:00,37.9,35.2,30.34,East,90,0.0,0.0,90,0.00,,,0.08,WUHU216HW,2013-01-30 16:45:00,
2013-01-30 08:50:00,37.9,35.2,30.34,NE,45,0.0,0.0,90,0.00,,,0.08,WUHU216HW,2013-01-30 16:50:00,
2013-01-30 08:55:00,38.1,35.2,30.34,ESE,113,0.0,0.0,90,0.00,,,0.08,WUHU216HW,2013-01-30 16:55:00,
2013-01-30 09:00:00,38.1,35.4,30.34,East,90,0.0,0.0,90,0.00,,,0.08,WUHU216HW,2013-01-30 17:00:00,
2013-01-30 09:05:00,38.1,35.4,30.34,ENE,68,0.0,0.0,90,0.00,,,0.08,WUHU216HW,2013-01-30 17:05:00,
2013-01-30 09:10:00,38.3,35.6,30.34,East,90,0.0,0.0,90,0.00,,,0.08,WUHU216HW,2013-01-30 17:10:00,
2013-01-30 09:15:00,38.4,35.7,30.34,ENE,68,0.0,0.0,90,0.02,,,0.10,WUHU216HW,2013-01-30 17:15:00,
2013-01-30 09:20:00,38.4,35.7,30.34,ENE,68,0.0,0.0,90,0.02,,,0.10,WUHU216HW,2013-01-30 17:20:00,
2013-01-30 09:25:00,38.4,35.7,30.34,NE,45,0.0,0.0,90,0.02,,,0.10,WUHU216HW,2013-01-30 17:25:00,
2013-01-30 09:30:00,38.8,36.1,30.35,NE,45,0.0,0.0,90,0.02,,,0.10,WUHU216HW,2013-01-30 17:30:00,
2013-01-30 09:35:00,38.8,36.1,30.35,SE,135,0.0,0.0,90,0.02,,,0.10,WUHU216HW,2013-01-30 17:35:00,
2013-01-30 09:40:00,39.0,36.3,30.35,ESE,113,0.0,0.0,90,0.02,,,0.10,WUHU216HW,2013-01-30 17:40:00,
2013-01-30 09:45:00,39.0,36.3,30.35,NE,45,0.0,0.0,90,0.02,,,0.10,WUHU216HW,2013-01-30 17:45:00,
2013-01-30 09:50:00,39.3,36.6,30.34,NNE,23,0.0,0.0,90,0.02,,,0.10,WUHU216HW,2013-01-30 17:50:00,
2013-01-30 09:55:00,39.3,36.6,30.35,ENE,68,0.0,0.0,90,0.02,,,0.10,WUHU216HW,2013-01-30 17:55:00,
2013-01-30 10:00:00,39.5,36.8,30.34,ENE,68,0.0,0.0,90,0.02,,,0.10,WUHU216HW,2013-01-30 18:00:00,
2013-01-30 10:05:00,39.7,37.0,30.35,NE,45,0.0,0.0,90,0.02,,,0.10,WUHU216HW,2013-01-30 18:05:00,
2013-01-30 10:10:00,39.9,37.2,30.34,NNE,23,0.0,0.0,90,0.00,,,0.10,WUHU216HW,2013-01-30 18:10:00,
2013-01-30 10:15:00,40.1,37.4,30.35,NE,45,0.0,0.0,90,0.00,,,0.10,WUHU216HW,2013-01-30 18:15:00,
2013-01-30 10:20:00,40.1,37.4,30.35,NNE,23,0.0,0.0,90,0.00,,,0.10,WUHU216HW,2013-01-30 18:20:00,
2013-01-30 10:25:00,40.2,37.5,30.35,ENE,68,0.0,0.0,90,0.00,,,0.10,WUHU216HW,2013-01-30 18:25:00,
2013-01-30 10:30:00,40.4,37.7,30.35,ESE,113,0.0,0.0,90,0.00,,,0.10,WUHU216HW,2013-01-30 18:30:00,
2013-01-30 10:35:00,40.6,37.9,30.36,NE,45,0.0,0.0,90,0.00,,,0.10,WUHU216HW,2013-01-30 18:35:00,
2013-01-30 10:40:00,40.6,37.9,30.35,NE,45,0.0,0.0,90,0.00,,,0.10,WUHU216HW,2013-01-30 18:40:00,
2013-01-30 10:45:00,40.8,38.1,30.35,SE,135,0.0,0.0,90,0.00,,,0.10,WUHU216HW,2013-01-30 18:45:00,
2013-01-30 10:50:00,40.8,38.1,30.35,East,90,0.0,0.0,90,0.00,,,0.10,WUHU216HW,2013-01-30 18:50:00,
2013-01-30 10:55:00,41.0,38.3,30.36,East,90,0.0,0.0,90,0.00,,,0.10,WUHU216HW,2013-01-30 18:55:00,
2013-01-30 11:00:00,41.1,38.4,30.36,South,180,0.0,0.0,90,0.00,,,0.10,WUHU216HW,2013-01-30 19:00:00,
2013-01-30 11:05:00,41.3,38.6,30.36,NNE,23,0.0,0.0,90,0.00,,,0.10,WUHU216HW,2013-01-30 19:05:00,
2013-01-30 11:10:00,41.3,38.6,30.36,ESE,113,0.0,0.0,90,0.00,,,0.10,WUHU216HW,2013-01-30 19:10:00,
2013-01-30 11:15:00,41.3,38.6,30.35,East,90,0.0,0.0,90,0.00,,,0.10,WUHU216HW,2013-01-30 19:15:00,
2013-01-30 11:20:00,41.7,39.0,30.35,NE,45,0.0,0.0,90,0.00,,,0.10,WUHU216HW,2013-01-30 19:20:00,
2013-01-30 11:25:00,41.7,39.0,30.35,NE,45,0.0,0.0,90,0.00,,,0.10,WUHU216HW,2013-01-30 19:25:00,
2013-01-30 11:30:00,41.9,39.2,30.35,NNE,23,1.3,1.3,90,0.00,,,0.10,WUHU216HW,2013-01-30 19:30:00,
2013-01-30 11:35:00,42.0,39.3,30.35,NNE,23,0.0,1.3,90,0.00,,,0.10,WUHU216HW,2013-01-30 19:35:00,
2013-01-30 11:40:00,42.4,39.7,30.35,ENE,68,0.0,1.3,90,0.00,,,0.10,WUHU216HW,2013-01-30 19:40:00,
2013-01-30 11:45:00,42.4,39.7,30.35,NNE,23,0.0,0.0,90,0.00,,,0.10,WUHU216HW,2013-01-30 19:45:00,
2013-01-30 11:50:00,42.6,39.6,30.35,NNE,23,0.0,0.0,89,0.00,,,0.10,WUHU216HW,2013-01-30 19:50:00,
2013-01-30 11:55:00,42.9,39.9,30.35,NNE,23,0.0,0.0,89,0.00,,,0.10,WUHU216HW,2013-01-30 19:55:00,
2013-01-30 12:00:00,42.9,39.7,30.35,NNE,23,0.0,0.0,89,0.00,,,0.10,WUHU216HW,2013-01-30 20:00:00,
2013-01-30 12:05:00,42.9,39.9,30.35,NNE,23,0.0,0.0,89,0.00,,,0.10,WUHU216HW,2013-01-30 20:05:00,
2013-01-30 12:10:00,43.3,40.3,30.35,NE,45,0.0,0.0,89,0.00,,,0.10,WUHU216HW,2013-01-30 20:10:00,
2013-01-30 12:15:00,43.3,40.3,30.35,ENE,68,0.0,0.0,89,0.00,,,0.10,WUHU216HW,2013-01-30 20:15:00,
2013-01-30 12:20:00,43.5,40.5,30.35,ENE,68,0.0,0.0,89,0.00,,,0.10,WUHU216HW,2013-01-30 20:20:00,
2013-01-30 12:25:00,43.7,40.6,30.34,South,180,0.0,0.0,89,0.00,,,0.10,WUHU216HW,2013-01-30 20:25:00,
2013-01-30 12:30:00,43.8,40.8,30.34,West,270,0.0,0.0,89,0.00,,,0.10,WUHU216HW,2013-01-30 20:30:00,
2013-01-30 12:35:00,44.0,41.0,30.34,WSW,248,0.0,0.0,89,0.00,,,0.10,WUHU216HW,2013-01-30 20:35:00,
2013-01-30 12:40:00,44.2,41.2,30.34,West,270,0.0,0.0,89,0.00,,,0.10,WUHU216HW,2013-01-30 20:40:00,
2013-01-30 12:45:00,44.2,41.2,30.34,West,270,0.0,0.0,89,0.00,,,0.10,WUHU216HW,2013-01-30 20:45:00,
2013-01-30 12:50:00,44.4,41.4,30.34,WSW,248,0.0,0.0,89,0.00,,,0.10,WUHU216HW,2013-01-30 20:50:00,
2013-01-30 12:55:00,44.4,41.4,30.34,WSW,248,0.0,0.0,89,0.00,,,0.10,WUHU216HW,2013-01-30 20:55:00,
2013-01-30 13:00:00,44.4,41.4,30.35,West,270,0.0,0.0,89,0.00,,,0.10,WUHU216HW,2013-01-30 21:00:00,
2013-01-30 13:05:00,44.6,41.5,30.34,WSW,248,0.0,0.0,89,0.00,,,0.10,WUHU216HW,2013-01-30 21:05:00,
2013-01-30 13:10:00,44.9,41.9,30.34,NE,45,0.0,0.0,89,0.00,,,0.10,WUHU216HW,2013-01-30 21:10:00,
2013-01-30 13:15:00,44.9,41.9,30.34,ESE,113,0.0,0.0,89,0.00,,,0.10,WUHU216HW,2013-01-30 21:15:00,
2013-01-30 13:20:00,44.9,41.9,30.34,ESE,113,0.0,0.0,89,0.00,,,0.10,WUHU216HW,2013-01-30 21:20:00,
2013-01-30 13:25:00,44.9,41.9,30.34,ESE,113,0.0,0.0,89,0.00,,,0.10,WUHU216HW,2013-01-30 21:25:00,
2013-01-30 13:30:00,44.9,41.6,30.34,South,180,0.0,0.0,88,0.00,,,0.10,WUHU216HW,2013-01-30 21:30:00,
2013-01-30 13:35:00,45.1,41.8,30.34,SW,225,0.0,0.0,88,0.00,,,0.10,WUHU216HW,2013-01-30 21:35:00,
2013-01-30 13:40:00,44.9,41.6,30.34,WSW,248,0.0,0.0,88,0.00,,,0.10,WUHU216HW,2013-01-30 21:40:00,
2013-01-30 13:45:00,45.1,41.8,30.34,WSW,248,0.0,0.0,88,0.00,,,0.10,WUHU216HW,2013-01-30 21:45:00,
2013-01-30 13:50:00,45.1,42.1,30.34,WSW,248,0.0,0.0,89,0.00,,,0.10,WUHU216HW,2013-01-30 21:50:00,
2013-01-30 13:55:00,45.1,42.1,30.34,WSW,248,0.0,0.0,89,0.00,,,0.10,WUHU216HW,2013-01-30 21:55:00,
2013-01-30 14:00:00,45.3,42.3,30.34,WSW,248,0.0,0.0,89,0.00,,,0.10,WUHU216HW,2013-01-30 22:00:00,
2013-01-30 14:05:00,45.3,42.0,30.34,WSW,248,0.0,0.0,88,0.00,,,0.10,WUHU216HW,2013-01-30 22:05:00,
2013-01-30 14:11:00,45.5,42.1,30.34,WSW,248,0.0,0.0,88,0.00,,,0.10,WUHU216HW,2013-01-30 22:11:00,
2013-01-30 14:16:00,45.5,42.4,30.34,SW,225,0.0,0.0,89,0.00,,,0.10,WUHU216HW,2013-01-30 22:16:00,
2013-01-30 14:21:00,45.5,42.4,30.34,SW,225,0.0,0.0,89,0.00,,,0.10,WUHU216HW,2013-01-30 22:21:00,
2013-01-30 14:26:00,45.6,42.6,30.34,SW,225,0.0,0.0,89,0.00,,,0.10,WUHU216HW,2013-01-30 22:26:00,
2013-01-30 14:31:00,45.6,42.6,30.33,West,270,0.0,0.0,89,0.00,,,0.10,WUHU216HW,2013-01-30 22:31:00,
2013-01-30 14:36:00,45.6,42.6,30.33,West,270,0.0,0.0,89,0.00,,,0.10,WUHU216HW,2013-01-30 22:36:00,
2013-01-30 14:41:00,45.6,42.6,30.33,West,270,0.0,0.0,89,0.00,,,0.10,WUHU216HW,2013-01-30 22:41:00,
2013-01-30 14:46:00,46.0,43.0,30.33,SW,225,1.5,1.5,89,0.00,,,0.10,WUHU216HW,2013-01-30 22:46:00,
2013-01-30 14:51:00,46.0,43.0,30.33,WSW,248,0.0,1.5,89,0.00,,,0.10,WUHU216HW,2013-01-30 22:51:00,
2013-01-30 14:56:00,46.0,43.0,30.33,WSW,248,1.0,1.5,89,0.00,,,0.10,WUHU216HW,2013-01-30 22:56:00,
2013-01-30 15:01:00,46.2,43.2,30.33,WSW,248,0.0,1.3,89,0.00,,,0.10,WUHU216HW,2013-01-30 23:01:00,
2013-01-30 15:06:00,46.0,43.0,30.33,SSW,203,0.0,0.8,89,0.00,,,0.10,WUHU216HW,2013-01-30 23:06:00,
2013-01-30 15:11:00,46.2,43.2,30.33,SSW,203,0.0,0.0,89,0.00,,,0.10,WUHU216HW,2013-01-30 23:11:00,
2013-01-30 15:16:00,46.2,43.2,30.33,West,270,2.4,2.4,89,0.00,,,0.10,WUHU216HW,2013-01-30 23:16:00,
2013-01-30 15:21:00,46.2,43.2,30.33,WSW,248,0.0,2.4,89,0.00,,,0.10,WUHU216HW,2013-01-30 23:21:00,
2013-01-30 15:26:00,46.2,43.2,30.33,SSW,203,0.0,2.4,89,0.00,,,0.10,WUHU216HW,2013-01-30 23:26:00,
2013-01-30 15:31:00,46.0,43.0,30.33,SSE,158,0.0,0.0,89,0.00,,,0.10,WUHU216HW,2013-01-30 23:31:00,
2013-01-30 15:36:00,46.0,43.0,30.33,SSE,158,0.0,0.0,89,0.00,,,0.10,WUHU216HW,2013-01-30 23:36:00,
2013-01-30 15:41:00,46.0,43.0,30.34,SSE,158,0.0,0.0,89,0.00,,,0.10,WUHU216HW,2013-01-30 23:41:00,
2013-01-30 15:46:00,46.0,43.0,30.34,SSE,158,0.0,0.0,89,0.00,,,0.10,WUHU216HW,2013-01-30 23:46:00,
2013-01-30 15:51:00,46.0,43.0,30.33,ENE,68,0.0,0.0,89,0.00,,,0.10,WUHU216HW,2013-01-30 23:51:00,
2013-01-30 15:56:00,46.0,43.0,30.33,NE,45,0.0,0.0,89,0.00,,,0.10,WUHU216HW,2013-01-30 23:56:00,
2013-01-30 16:01:00,45.6,42.6,30.34,NE,45,0.0,0.0,89,0.00,,,0.10,WUHU216HW,2013-01-31 00:01:00,
2013-01-30 16:06:00,45.5,42.4,30.33,NE,45,0.0,0.0,89,0.00,,,0.10,WUHU216HW,2013-01-31 00:06:00,
2013-01-30 16:11:00,45.3,42.3,30.34,NE,45,0.0,0.8,89,0.00,,,0.10,WUHU216HW,2013-01-31 00:11:00,
2013-01-30 16:16:00,45.3,42.3,30.33,NE,45,0.0,0.8,89,0.00,,,0.10,WUHU216HW,2013-01-31 00:16:00,
2013-01-30 16:21:00,45.1,42.1,30.33,NE,45,0.0,0.0,89,0.00,,,0.10,WUHU216HW,2013-01-31 00:21:00,
2013-01-30 16:26:00,45.1,42.1,30.33,NE,45,0.0,0.0,89,0.00,,,0.10,WUHU216HW,2013-01-31 00:26:00,
2013-01-30 16:31:00,44.9,41.9,30.34,East,90,0.0,0.0,89,0.00,,,0.10,WUHU216HW,2013-01-31 00:31:00,
2013-01-30 16:36:00,44.9,41.9,30.34,East,90,0.0,0.0,89,0.00,,,0.10,WUHU216HW,2013-01-31 00:36:00,
2013-01-30 16:41:00,44.7,41.7,30.34,East,90,0.0,0.0,89,0.00,,,0.10,WUHU216HW,2013-01-31 00:41:00,
2013-01-30 16:46:00,44.7,41.7,30.34,ENE,68,0.0,0.0,89,0.00,,,0.10,WUHU216HW,2013-01-31 00:46:00,
2013-01-30 16:51:00,44.7,41.7,30.34,ENE,68,0.0,0.0,89,0.00,,,0.10,WUHU216HW,2013-01-31 00:51:00,
2013-01-30 16:56:00,44.6,41.5,30.34,NE,45,0.0,0.0,89,0.00,,,0.10,WUHU216HW,2013-01-31 00:56:00,
2013-01-30 17:01:00,44.4,41.4,30.34,NE,45,0.0,0.0,89,0.00,,,0.10,WUHU216HW,2013-01-31 01:01:00,
2013-01-30 17:06:00,44.4,41.4,30.34,SE,135,0.0,0.0,89,0.02,,,0.12,WUHU216HW,2013-01-31 01:06:00,
2013-01-30 17:11:00,44.4,41.7,30.34,SE,135,0.0,0.0,90,0.02,,,0.12,WUHU216HW,2013-01-31 01:11:00,
2013-01-30 17:16:00,44.4,41.7,30.34,NE,45,0.0,0.0,90,0.02,,,0.12,WUHU216HW,2013-01-31 01:16:00,
2013-01-30 17:21:00,44.2,41.5,30.34,NE,45,0.0,0.0,90,0.02,,,0.12,WUHU216HW,2013-01-31 01:21:00,
2013-01-30 17:26:00,44.2,41.5,30.34,NE,45,0.0,0.0,90,0.02,,,0.12,WUHU216HW,2013-01-31 01:26:00,
2013-01-30 17:31:00,44.2,41.5,30.34,NE,45,0.0,0.0,90,0.02,,,0.12,WUHU216HW,2013-01-31 01:31:00,
2013-01-30 17:36:00,44.0,41.3,30.34,NE,45,0.0,0.0,90,0.02,,,0.12,WUHU216HW,2013-01-31 01:36:00,
2013-01-30 17:41:00,44.0,41.3,30.34,East,90,0.0,0.0,90,0.02,,,0.12,WUHU216HW,2013-01-31 01:41:00,
2013-01-30 17:46:00,44.0,41.3,30.34,East,90,0.0,0.0,90,0.02,,,0.12,WUHU216HW,2013-01-31 01:46:00,
2013-01-30 17:51:00,43.8,41.1,30.34,East,90,0.0,0.0,90,0.02,,,0.12,WUHU216HW,2013-01-31 01:51:00,
2013-01-30 17:56:00,43.8,41.1,30.34,East,90,0.0,0.0,90,0.04,,,0.14,WUHU216HW,2013-01-31 01:56:00,
2013-01-30 18:01:00,43.7,41.0,30.34,East,90,0.0,0.0,90,0.04,,,0.14,WUHU216HW,2013-01-31 02:01:00,
2013-01-30 18:06:00,43.7,41.0,30.33,East,90,0.0,0.0,90,0.02,,,0.14,WUHU216HW,2013-01-31 02:06:00,
2013-01-30 18:11:00,43.5,40.5,30.33,East,90,0.0,0.0,89,0.02,,,0.14,WUHU216HW,2013-01-31 02:11:00,
2013-01-30 18:16:00,43.5,40.5,30.34,East,90,0.0,0.0,89,0.02,,,0.14,WUHU216HW,2013-01-31 02:16:00,
2013-01-30 18:21:00,43.5,40.5,30.34,East,90,0.0,0.0,89,0.02,,,0.14,WUHU216HW,2013-01-31 02:21:00,
2013-01-30 18:26:00,43.5,40.5,30.34,East,90,0.0,0.0,89,0.02,,,0.14,WUHU216HW,2013-01-31 02:26:00,
2013-01-30 18:31:00,43.5,40.8,30.34,ENE,68,0.0,0.0,90,0.02,,,0.14,WUHU216HW,2013-01-31 02:31:00,
2013-01-30 18:36:00,43.8,41.1,30.34,NE,45,0.0,0.0,90,0.02,,,0.14,WUHU216HW,2013-01-31 02:36:00,
2013-01-30 18:41:00,44.2,41.5,30.34,NE,45,0.0,0.0,90,0.02,,,0.14,WUHU216HW,2013-01-31 02:41:00,
2013-01-30 18:46:00,44.4,41.7,30.34,NE,45,0.0,0.0,90,0.02,,,0.14,WUHU216HW,2013-01-31 02:46:00,
2013-01-30 18:51:00,44.6,41.9,30.33,NE,45,0.0,0.0,90,0.02,,,0.14,WUHU216HW,2013-01-31 02:51:00,
2013-01-30 18:56:00,44.9,42.2,30.33,NE,45,0.0,0.0,90,0.02,,,0.16,WUHU216HW,2013-01-31 02:56:00,
2013-01-30 19:01:00,44.9,42.2,30.33,NE,45,0.0,0.0,90,0.02,,,0.16,WUHU216HW,2013-01-31 03:01:00,
2013-01-30 19:06:00,45.1,42.1,30.33,NE,45,0.0,0.0,89,0.02,,,0.16,WUHU216HW,2013-01-31 03:06:00,
2013-01-30 19:11:00,45.1,42.1,30.33,NE,45,0.0,0.0,89,0.02,,,0.16,WUHU216HW,2013-01-31 03:11:00,
2013-01-30 19:16:00,45.1,42.1,30.33,NE,45,0.0,0.0,89,0.02,,,0.16,WUHU216HW,2013-01-31 03:16:00,
2013-01-30 19:21:00,45.1,41.8,30.33,ENE,68,0.0,0.0,88,0.02,,,0.16,WUHU216HW,2013-01-31 03:21:00,
2013-01-30 19:26:00,45.1,41.8,30.33,ENE,68,0.0,0.0,88,0.02,,,0.16,WUHU216HW,2013-01-31 03:26:00,
2013-01-30 19:31:00,45.1,41.8,30.33,ENE,68,0.0,0.0,88,0.02,,,0.16,WUHU216HW,2013-01-31 03:31:00,
2013-01-30 19:36:00,44.9,41.6,30.33,NE,45,0.0,0.0,88,0.02,,,0.16,WUHU216HW,2013-01-31 03:36:00,
2013-01-30 19:41:00,44.9,41.6,30.33,NE,45,0.0,0.0,88,0.02,,,0.16,WUHU216HW,2013-01-31 03:41:00,
2013-01-30 19:46:00,44.7,41.4,30.32,NE,45,0.0,0.0,88,0.02,,,0.16,WUHU216HW,2013-01-31 03:46:00,
2013-01-30 19:51:00,44.7,41.1,30.33,NE,45,0.0,0.0,87,0.02,,,0.16,WUHU216HW,2013-01-31 03:51:00,
2013-01-30 19:56:00,44.7,41.1,30.33,NE,45,0.0,0.0,87,0.02,,,0.18,WUHU216HW,2013-01-31 03:56:00,
2013-01-30 20:01:00,44.7,41.1,30.33,NE,45,0.0,0.0,87,0.02,,,0.18,WUHU216HW,2013-01-31 04:01:00,
2013-01-30 20:06:00,44.7,41.1,30.33,NE,45,0.0,0.0,87,0.02,,,0.18,WUHU216HW,2013-01-31 04:06:00,
2013-01-30 20:11:00,44.7,41.1,30.33,NE,45,0.0,0.0,87,0.02,,,0.18,WUHU216HW,2013-01-31 04:11:00,
2013-01-30 20:16:00,44.7,41.1,30.33,NE,45,0.0,0.0,87,0.02,,,0.18,WUHU216HW,2013-01-31 04:16:00,
2013-01-30 20:21:00,44.6,40.9,30.33,NE,45,0.0,0.0,87,0.02,,,0.18,WUHU216HW,2013-01-31 04:21:00,
2013-01-30 20:26:00,44.7,41.1,30.33,NE,45,0.0,0.0,87,0.02,,,0.18,WUHU216HW,2013-01-31 04:26:00,
2013-01-30 20:31:00,44.6,40.9,30.33,NE,45,0.0,0.0,87,0.02,,,0.18,WUHU216HW,2013-01-31 04:31:00,
2013-01-30 20:36:00,44.4,40.8,30.33,NE,45,0.0,0.0,87,0.02,,,0.18,WUHU216HW,2013-01-31 04:36:00,
2013-01-30 20:41:00,44.4,40.8,30.34,NE,45,0.0,0.0,87,0.02,,,0.18,WUHU216HW,2013-01-31 04:41:00,
2013-01-30 20:46:00,44.4,40.8,30.34,NE,45,0.0,0.0,87,0.02,,,0.18,WUHU216HW,2013-01-31 04:46:00,
2013-01-30 20:51:00,44.4,40.8,30.34,NE,45,0.0,0.0,87,0.02,,,0.18,WUHU216HW,2013-01-31 04:51:00,
2013-01-30 20:56:00,44.4,40.8,30.34,NE,45,0.0,0.0,87,0.00,,,0.18,WUHU216HW,2013-01-31 04:56:00,
2013-01-30 21:00:00,44.4,40.8,30.34,ENE,68,0.0,0.0,87,0.00,,,0.18,WUHU216HW,2013-01-31 05:00:00,
2013-01-30 21:01:00,44.4,40.8,30.34,ENE,68,0.0,0.0,87,0.00,,,0.18,WUHU216HW,2013-01-31 05:01:00,
2013-01-30 21:06:00,44.4,40.8,30.34,ENE,68,0.0,0.0,87,0.00,,,0.18,WUHU216HW,2013-01-31 05:06:00,
2013-01-30 21:11:00,44.4,40.8,30.34,ENE,68,0.0,0.0,87,0.00,,,0.18,WUHU216HW,2013-01-31 05:11:00,
2013-01-30 21:16:00,44.4,40.8,30.33,ENE,68,0.0,0.0,87,0.02,,,0.20,WUHU216HW,2013-01-31 05:16:00,
2013-01-30 21:21:00,44.4,40.8,30.33,ENE,68,0.0,0.0,87,0.02,,,0.20,WUHU216HW,2013-01-31 05:21:00,
2013-01-30 21:26:00,44.4,40.8,30.33,ENE,68,0.0,0.0,87,0.02,,,0.20,WUHU216HW,2013-01-31 05:26:00,
2013-01-30 21:31:00,44.4,40.4,30.33,ENE,68,0.0,0.0,86,0.02,,,0.20,WUHU216HW,2013-01-31 05:31:00,
2013-01-30 21:36:00,44.2,40.3,30.34,ENE,68,0.0,0.0,86,0.02,,,0.20,WUHU216HW,2013-01-31 05:36:00,
2013-01-30 21:41:00,44.2,40.3,30.34,ENE,68,0.0,0.0,86,0.02,,,0.20,WUHU216HW,2013-01-31 05:41:00,
2013-01-30 21:46:00,44.2,40.3,30.34,NE,45,0.0,0.0,86,0.02,,,0.20,WUHU216HW,2013-01-31 05:46:00,
2013-01-30 21:51:00,44.0,40.1,30.34,NE,45,0.0,0.0,86,0.02,,,0.20,WUHU216HW,2013-01-31 05:51:00,
2013-01-30 21:56:00,44.0,40.1,30.34,NE,45,0.0,0.0,86,0.02,,,0.20,WUHU216HW,2013-01-31 05:56:00,
2013-01-30 22:01:00,43.8,39.9,30.34,NE,45,0.0,0.0,86,0.02,,,0.20,WUHU216HW,2013-01-31 06:01:00,
2013-01-30 22:06:00,43.8,39.9,30.34,NE,45,0.0,0.0,86,0.02,,,0.20,WUHU216HW,2013-01-31 06:06:00,
2013-01-30 22:11:00,43.7,39.7,30.34,NE,45,0.0,0.0,86,0.00,,,0.20,WUHU216HW,2013-01-31 06:11:00,
2013-01-30 22:16:00,43.5,39.5,30.34,NE,45,0.0,0.0,86,0.00,,,0.20,WUHU216HW,2013-01-31 06:16:00,
2013-01-30 22:21:00,43.1,39.2,30.34,NE,45,0.0,0.0,86,0.00,,,0.20,WUHU216HW,2013-01-31 06:21:00,
2013-01-30 22:26:00,42.9,39.0,30.34,NE,45,0.0,0.0,86,0.00,,,0.20,WUHU216HW,2013-01-31 06:26:00,
2013-01-30 22:31:00,42.6,39.0,30.34,NE,45,0.0,0.0,87,0.00,,,0.20,WUHU216HW,2013-01-31 06:31:00,
2013-01-30 22:36:00,42.4,38.8,30.34,NE,45,0.0,0.0,87,0.00,,,0.20,WUHU216HW,2013-01-31 06:36:00,
2013-01-30 22:41:00,42.2,38.6,30.34,NE,45,0.0,0.0,87,0.00,,,0.20,WUHU216HW,2013-01-31 06:41:00,
2013-01-30 22:46:00,42.0,38.4,30.34,NE,45,0.0,0.0,87,0.00,,,0.20,WUHU216HW,2013-01-31 06:46:00,
2013-01-30 22:51:00,42.0,38.7,30.33,NE,45,0.0,0.0,88,0.02,,,0.22,WUHU216HW,2013-01-31 06:51:00,
2013-01-30 22:56:00,41.9,38.5,30.34,NE,45,0.0,0.0,88,0.02,,,0.22,WUHU216HW,2013-01-31 06:56:00,
2013-01-30 23:01:00,41.9,38.5,30.34,East,90,0.0,0.0,88,0.02,,,0.22,WUHU216HW,2013-01-31 07:01:00,
2013-01-30 23:06:00,41.7,38.4,30.34,East,90,0.0,0.0,88,0.02,,,0.22,WUHU216HW,2013-01-31 07:06:00,
2013-01-30 23:11:00,41.7,38.4,30.33,ENE,68,0.0,0.0,88,0.02,,,0.22,WUHU216HW,2013-01-31 07:11:00,
2013-01-30 23:16:00,41.7,38.4,30.33,NE,45,0.0,0.0,88,0.02,,,0.22,WUHU216HW,2013-01-31 07:16:00,
2013-01-30 23:21:00,41.5,38.2,30.34,NE,45,0.0,0.0,88,0.02,,,0.22,WUHU216HW,2013-01-31 07:21:00,
2013-01-30 23:26:00,41.5,38.2,30.34,NE,45,0.0,0.0,88,0.02,,,0.22,WUHU216HW,2013-01-31 07:26:00,
2013-01-30 23:31:00,41.5,38.2,30.34,NE,45,0.0,0.0,88,0.02,,,0.22,WUHU216HW,2013-01-31 07:31:00,
2013-01-30 23:36:00,41.5,38.2,30.34,NE,45,0.0,0.0,88,0.02,,,0.22,WUHU216HW,2013-01-31 07:36:00,
2013-01-30 23:41:00,41.3,38.0,30.34,SE,135,0.0,0.0,88,0.02,,,0.22,WUHU216HW,2013-01-31 07:41:00,
2013-01-30 23:46:00,41.3,38.0,30.34,SSE,158,0.0,0.0,88,0.02,,,0.22,WUHU216HW,2013-01-31 07:46:00,
2013-01-30 23:51:00,41.1,37.8,30.34,SSE,158,0.0,0.0,88,0.02,,,0.25,WUHU216HW,2013-01-31 07:51:00,
2013-01-30 23:56:00,41.1,37.8,30.34,NE,45,0.0,0.0,88,0.02,,,0.25,WUHU216HW,2013-01-31 07:56:00,